Location: Augirein
(42.9320°N, 0.9181°E)
Time: 15:18:16
(UTC+00:00)

ARIANE 5 R/B - Pass Details

Date: 20 June 2021
Orbit: 748 x 795 km, 98.7° (Epoch: 31 July)

Event Time Altitude Azimuth Distance (km) Brightness Sun altitude
Rises 02:54:11 0° 17° (NNE) 3,205 7.0 -12.2°
Reaches altitude 10° 02:56:31 10° 21° (NNE) 2,277 6.2 -11.9°
Maximum altitude 03:01:28 60° 101° (ESE) 855 2.9 -11.3°
Drops below altitude 10° 03:06:24 10° 182° (S) 2,272 4.5 -10.7°
Enters shadow 03:07:14 - 184° (S) 2,600 4.8 -10.6°
